Location: Twentynine Palms Airport
(34.1316°N, 115.9458°W)
Time: 07:45:26
(UTC-07:00)

Amateur Radio Satellites - All Passes

Search period start: 23 April 2014 07:15
Search period end: 24 April 2014 07:15
Location: Twentynine Palms Airport, 34.1316°N, 115.9458°W

Satellite Date Start Highest point End Downlink Frequencies (MHz)
Time Altitude Azimuth
STRAND 1 23 Apr 07:15:25 07:20:14 42° 261° (W) 07:25:04 ?
Hamsat 23 Apr 07:43:54 07:47:34 27° 289° (WNW) 07:51:13 145.90 MHz
SO-67 23 Apr 07:56:47 08:00:17 81° 101° (ESE) 08:03:46 435.3500 MHz FM
Sapphire 23 Apr 08:04:59 08:08:41 18° 52° (NE) 08:12:22 437.095 MHz 1200 baud AX-25 AFSK
HO-68 23 Apr 08:25:20 08:28:33 13° 92° (E) 08:31:45 435.675 MHz FM
Saudisat 1A 23 Apr 08:41:20 08:43:46 15° 108° (ESE) 08:46:12 436.775 MHz
PCSat 23 Apr 08:48:25 08:53:37 45° 60° (ENE) 08:58:47 145.825 MHz
PANSAT 23 Apr 08:49:43 08:53:16 34° 183° (S) 08:56:49 not established
JAS-2 23 Apr 08:52:45 08:57:29 29° 290° (WNW) 09:02:40 435.800 - 435.900 CW/SSB, 435.910 FM
Oscar 10/S400 23 Apr 08:53:07 10:21:17 72° 213° (SSW) 19:00:51 145.825 - 145.975 CW/USB, Beacon 145.810 USB
RS-15 23 Apr 09:33:07 09:39:16 16° 333° (NNW) 09:45:22 29.354 - 29.394 USB, Beacon 29.352 USB
Oscar 11 23 Apr 09:33:45 09:36:34 17° 94° (E) 09:39:22 145.825 FM, Beacon 2401.500 USB
Sapphire 23 Apr 09:47:09 09:52:27 56° 248° (WSW) 09:57:43 437.095 MHz 1200 baud AX-25 AFSK
KITSAT 1 23 Apr 09:58:37 10:04:40 22° 46° (NE) 10:10:39 435.175 FM
HO-68 23 Apr 10:09:42 10:16:55 86° 286° (WNW) 10:24:07 435.675 MHz FM
Saudisat 1A 23 Apr 10:18:40 10:22:57 46° 302° (WNW) 10:27:15 436.775 MHz
PANSAT 23 Apr 10:30:06 10:33:05 21° 196° (SSW) 10:36:04 not established
PCSat 23 Apr 10:32:49 10:36:38 20° 255° (WSW) 10:40:27 145.825 MHz
Oscar 11 23 Apr 11:08:52 11:12:48 34° 288° (WNW) 11:16:44 145.825 FM, Beacon 2401.500 USB
FUNcube-1 23 Apr 11:11:12 11:15:31 73° 102° (ESE) 11:19:56 145.950 - 145.970 MHz USB
KITSAT 1 23 Apr 11:52:49 12:00:55 81° 245° (WSW) 12:08:57 435.175 FM
RS-15 23 Apr 11:56:06 11:58:50 11° 12° (NNE) 12:01:35 29.354 - 29.394 USB, Beacon 29.352 USB
HO-68 23 Apr 12:00:08 12:03:34 14° 303° (WNW) 12:07:01 435.675 MHz FM
Oscar 19 23 Apr 12:27:30 12:30:37 16° 65° (ENE) 12:33:44 437.125 CW, 437.150 USB
Oscar 16 23 Apr 12:35:45 12:39:34 22° 67° (ENE) 12:43:25 437.025 USB, Beacon 2401.1428
ISS 23 Apr 12:40:15 12:43:13 30° 131° (SE) 12:46:12 145.800 FM
Uribyol 2 23 Apr 13:18:26 13:22:49 29° 69° (ENE) 13:27:12 436.500 FM
AO-Echo 23 Apr 13:32:15 13:36:43 30° 70° (ENE) 13:41:05 ?
KITSAT 1 23 Apr 13:52:26 13:55:02 12° 261° (W) 13:57:39 435.175 FM
SO-50 23 Apr 13:52:33 13:56:49 46° 115° (ESE) 14:01:07 436.795 FM
AO-27 23 Apr 14:00:03 14:05:13 74° 75° (ENE) 14:10:24 436.795 MHz FM
Oscar 19 23 Apr 14:04:30 14:09:29 51° 260° (W) 14:14:31 437.125 CW, 437.150 USB
RS-15 23 Apr 14:06:40 14:16:16 33° 46° (NE) 14:26:00 29.354 - 29.394 USB, Beacon 29.352 USB
ITAMSAT 1 23 Apr 14:09:33 14:14:44 90° 77° (ENE) 14:19:56 435.822 SSB
Oscar 16 23 Apr 14:13:53 14:18:38 38° 262° (W) 14:23:25 437.025 USB, Beacon 2401.1428
ISS 23 Apr 14:17:16 14:19:57 22° 326° (NW) 14:22:39 145.800 FM
Gurwin Techsat 1B 23 Apr 14:18:12 14:22:51 32° 70° (ENE) 14:27:30 435.225 FM
Uribyol 2 23 Apr 14:57:49 15:02:11 28° 263° (W) 15:06:34 436.500 FM
TMSAT-1 23 Apr 15:02:50 15:08:02 62° 74° (ENE) 15:13:15 436.925 FM
OPAL 23 Apr 15:05:14 15:10:09 40° 101° (E) 15:15:01 ?
AO-Echo 23 Apr 15:10:59 15:15:23 27° 263° (W) 15:19:42 ?
JAS-1B 23 Apr 15:25:13 15:33:04 58° 73° (ENE) 15:39:38 435.800 - 435.900 CW/SSB
AO-7 23 Apr 15:30:51 15:38:21 41° 64° (ENE) 15:45:52 29.400 - 29.500 MHz
Uosat F 23 Apr 15:32:55 15:37:36 42° 72° (ENE) 15:42:18 435.120 FM
SO-50 23 Apr 15:34:42 15:37:36 17° 311° (NW) 15:40:32 436.795 FM
UOSAT-12 23 Apr 15:50:10 15:54:22 39° 113° (ESE) 15:58:39 437.025 FM, 437.400 FM
Gurwin Techsat 1B 23 Apr 15:58:22 16:02:45 26° 264° (W) 16:07:10 435.225 FM
RS-15 23 Apr 16:18:29 16:29:19 68° 247° (WSW) 16:40:32 29.354 - 29.394 USB, Beacon 29.352 USB
OPAL 23 Apr 16:44:50 16:48:43 22° 295° (WNW) 16:52:34 ?
TMSAT-1 23 Apr 16:45:56 16:48:18 13° 268° (W) 16:50:40 436.925 FM
Uosat F 23 Apr 17:13:08 17:16:31 18° 265° (W) 17:19:55 435.120 FM
JAS-1B 23 Apr 17:17:47 17:23:42 22° 263° (W) 17:29:00 435.800 - 435.900 CW/SSB
AO-7 23 Apr 17:23:26 17:31:01 40° 260° (W) 17:38:39 29.400 - 29.500 MHz
UOSAT-12 23 Apr 17:31:16 17:34:39 20° 310° (NW) 17:38:05 437.025 FM, 437.400 FM
AO-40 23 Apr 18:24:35 09:18:51 44° 181° (S) 18:44:50 Beacon 2401.320
SO-67 23 Apr 18:28:14 18:30:17 15° 70° (ENE) 18:32:20 435.3500 MHz FM
Hamsat 23 Apr 18:33:00 18:37:08 58° 260° (W) 18:41:19 145.90 MHz
Saudisat 1A 23 Apr 18:48:58 18:53:13 46° 57° (ENE) 18:57:24 436.775 MHz
JAS-2 23 Apr 19:00:40 19:06:28 77° 76° (ENE) 19:11:46 435.800 - 435.900 CW/SSB, 435.910 FM
ISS 23 Apr 19:13:11 19:14:19 11° 26° (NNE) 19:15:27 145.800 FM
MaSat-1 23 Apr 19:27:46 19:28:32 11° 108° (ESE) 19:29:17 437.345 MHz
STRAND 1 23 Apr 19:29:28 19:34:35 89° 103° (ESE) 19:39:41 ?
SO-67 23 Apr 20:00:23 20:03:13 23° 264° (W) 20:06:03 435.3500 MHz FM
Saudisat 1A 23 Apr 20:30:08 20:32:22 14° 252° (WSW) 20:34:35 436.775 MHz
HO-68 23 Apr 20:34:01 20:40:48 49° 69° (ENE) 20:47:36 435.675 MHz FM
ISS 23 Apr 20:48:09 20:51:30 81° 43° (NE) 20:54:51 145.800 FM
MaSat-1 23 Apr 21:04:47 21:06:42 16° 296° (WNW) 21:08:30 437.345 MHz
Oscar 11 23 Apr 21:59:43 22:04:00 71° 259° (WSW) 22:08:19 145.825 FM, Beacon 2401.500 USB
FUNcube-1 23 Apr 22:04:38 22:08:26 35° 73° (ENE) 22:12:13 145.950 - 145.970 MHz USB
HO-68 23 Apr 22:22:51 22:28:38 27° 264° (W) 22:34:29 435.675 MHz FM
SO-50 23 Apr 22:28:26 22:31:36 18° 50° (NE) 22:34:48 436.795 FM
Sapphire 23 Apr 22:42:28 22:47:13 32° 108° (ESE) 22:51:58 437.095 MHz 1200 baud AX-25 AFSK
PCSat 23 Apr 23:26:05 23:31:28 90° 294° (WNW) 23:36:55 145.825 MHz
FUNcube-1 23 Apr 23:42:37 23:44:57 15° 266° (W) 23:47:15 145.950 - 145.970 MHz USB
SO-50 24 Apr 00:07:54 00:12:24 48° 245° (WSW) 00:16:57 436.795 FM
KITSAT 1 24 Apr 00:23:59 00:29:42 22° 103° (ESE) 00:35:25 435.175 FM
UOSAT-12 24 Apr 00:24:19 00:27:02 15° 48° (NE) 00:29:44 437.025 FM, 437.400 FM
Sapphire 24 Apr 00:25:53 00:30:34 29° 304° (NW) 00:35:16 437.095 MHz 1200 baud AX-25 AFSK
PCSat 24 Apr 01:13:34 01:15:38 12° 313° (NW) 01:17:42 145.825 MHz
Uribyol 2 24 Apr 01:36:17 01:38:47 14° 93° (E) 01:41:17 436.500 FM
AO-Echo 24 Apr 01:45:57 01:46:56 11° 92° (E) 01:47:54 ?
UOSAT-12 24 Apr 02:02:56 02:07:35 61° 244° (WSW) 02:12:10 437.025 FM, 437.400 FM
KITSAT 1 24 Apr 02:16:14 02:24:18 69° 299° (WNW) 02:32:25 435.175 FM
OPAL 24 Apr 02:16:35 02:21:23 47° 70° (ENE) 02:26:16 ?
AO-27 24 Apr 02:17:15 02:21:59 36° 98° (E) 02:26:43 436.795 MHz FM
Oscar 19 24 Apr 02:19:44 02:24:57 78° 102° (ESE) 02:30:08 437.125 CW, 437.150 USB
ITAMSAT 1 24 Apr 02:26:28 02:31:24 44° 99° (E) 02:36:18 435.822 SSB
Oscar 16 24 Apr 02:28:56 02:34:09 80° 284° (WNW) 02:39:20 437.025 USB, Beacon 2401.1428
Gurwin Techsat 1B 24 Apr 02:39:03 02:42:26 17° 93° (E) 02:45:49 435.225 FM
Uribyol 2 24 Apr 03:13:29 03:18:34 58° 286° (WNW) 03:23:38 436.500 FM
JAS-1B 24 Apr 03:16:00 03:18:54 14° 94° (E) 03:21:54 435.800 - 435.900 CW/SSB
AO-Echo 24 Apr 03:21:25 03:26:04 59° 286° (WNW) 03:30:39 ?
TMSAT-1 24 Apr 03:22:51 03:27:37 33° 97° (E) 03:32:20 436.925 FM
AO-7 24 Apr 03:38:55 03:42:58 14° 92° (E) 03:47:00 29.400 - 29.500 MHz
Uosat F 24 Apr 03:45:29 03:48:44 17° 94° (E) 03:51:59 435.120 FM
AO-27 24 Apr 03:57:16 04:01:15 23° 292° (WNW) 04:05:14 436.795 MHz FM
OPAL 24 Apr 03:57:20 04:00:28 17° 265° (W) 04:03:39 ?
Oscar 19 24 Apr 04:02:10 04:03:35 11° 297° (WNW) 04:04:59 437.125 CW, 437.150 USB
ITAMSAT 1 24 Apr 04:06:57 04:10:31 19° 294° (WNW) 04:14:05 435.822 SSB
KITSAT 1 24 Apr 04:16:50 04:21:15 15° 320° (NW) 04:25:42 435.175 FM
Gurwin Techsat 1B 24 Apr 04:17:31 04:22:37 48° 287° (WNW) 04:27:41 435.225 FM
RS-15 24 Apr 04:27:19 04:36:10 27° 104° (ESE) 04:44:43 29.354 - 29.394 USB, Beacon 29.352 USB
TMSAT-1 24 Apr 05:03:04 05:07:20 25° 292° (WNW) 05:11:35 436.925 FM
JAS-1B 24 Apr 05:04:14 05:09:51 61° 286° (WNW) 05:16:00 435.800 - 435.900 CW/SSB
PANSAT 24 Apr 05:07:06 05:09:10 14° 159° (SSE) 05:11:14 not established
Uosat F 24 Apr 05:22:58 05:27:40 43° 288° (WNW) 05:32:22 435.120 FM
AO-7 24 Apr 05:28:13 05:36:35 89° 107° (ESE) 05:44:57 29.400 - 29.500 MHz
MaSat-1 24 Apr 05:29:58 05:32:26 20° 64° (ENE) 05:35:13 437.345 MHz
Hamsat 24 Apr 06:22:47 06:26:42 32° 97° (E) 06:30:37 145.90 MHz
RS-15 24 Apr 06:36:10 06:47:31 71° 301° (WNW) 06:58:32 29.354 - 29.394 USB, Beacon 29.352 USB
STRAND 1 24 Apr 06:41:39 06:46:46 88° 76° (ENE) 06:51:53 ?
PANSAT 24 Apr 06:45:28 06:48:53 30° 171° (S) 06:52:18 not established
MaSat-1 24 Apr 07:08:10 07:10:40 19° 251° (WSW) 07:13:29 437.345 MHz
